Weather History for Imperial Beach, CA

Change the Weather History Date:

Monday, October 28, 2013

  Actual Average Record
Temperature  
Mean Temperature 60 °F -  
Max Temperature 64 °F 65 °F 81 °F (2010)
Min Temperature 55 °F 54 °F 50 °F (1996)
Degree Days  
Heating Degree Days 4    
Growing Degree Days 10 (Base 50)    
Moisture  
Dew Point 56 °F    
Average Humidity 87    
Maximum Humidity 97    
Minimum Humidity 61    
Precipitation  
Precipitation 0.00 in - - ()
Sea Level Pressure  
Sea Level Pressure 29.91 in    
Wind  
Wind Speed 6 mph (SW)    
Max Wind Speed 14 mph    
Max Gust Speed -    
Visibility 8 miles    
Events Rain    
Averages and records for this station are not official NWS values.
T = Trace of Precipitation, MM = Missing Value Source: NWS Daily Summary

Daily Weather History Graph

Daily Weather History Graph

Search for Another Location

Airport:

Trip Planner

Search our weather history database for the weather conditions in past years. The results will help you decide how hot, cold, wet, or windy it might be!

Date:

Astronomy

Oct. 28, 2013 Rise Set
Actual Time 7:02 AM PDT 6:01 PM PDT
Civil Twilight 6:37 AM PDT 6:26 PM PDT
Nautical Twilight 6:08 AM PDT 6:55 PM PDT
Astronomical Twilight 5:39 AM PDT 7:23 PM PDT
Moon 1:19 AM PDT (10/28) 2:28 PM PDT (10/28)
Length of Visible Light 11h 48m
Length of Day
10h 58m
Waning Crescent, 33% of the Moon is Illuminated
Oct 28
Waning Crescent
Nov 3
New
Nov 9
First Quarter
Nov 17
Full
Nov 25
Last Quarter

Hourly Weather History & Observations

Time (PDT) Temp. Dew Point Humidity Pressure Visibility Wind Dir Wind Speed Gust Speed Precip Events Conditions
12:20 AM 62.6 °F 55.4 °F 77% 29.90 in 10.0 mi SSW 5.8 mph - N/A   Overcast
12:52 AM 60.8 °F 55.4 °F 82% 29.90 in 10.0 mi South 4.6 mph - N/A   Overcast
12:56 AM 61.0 °F 55.0 °F 81% 29.90 in 10.0 mi South 4.6 mph - N/A   Overcast
1:56 AM 60.1 °F 57.0 °F 90% 29.90 in 10.0 mi South 5.8 mph - N/A   Mostly Cloudy
2:07 AM 60.8 °F 57.2 °F 88% 29.90 in 9.0 mi South 4.6 mph - N/A   Mostly Cloudy
2:56 AM 60.1 °F 57.0 °F 90% 29.89 in 9.0 mi South 5.8 mph - N/A   Overcast
3:32 AM 60.8 °F 57.2 °F 88% 29.88 in 10.0 mi SSW 5.8 mph - N/A   Overcast
3:41 AM 60.8 °F 57.2 °F 88% 29.88 in 10.0 mi SSW 6.9 mph - N/A   Overcast
3:54 AM 60.8 °F 57.2 °F 88% 29.88 in 3.0 mi SSW 6.9 mph - 0.00 in Rain Light Rain
3:56 AM 61.0 °F 57.9 °F 90% 29.88 in 3.0 mi SSW 5.8 mph - 0.00 in Rain Light Rain
4:11 AM 60.8 °F 57.2 °F 88% 29.88 in 2.5 mi SSW 4.6 mph - 0.00 in Rain Light Rain
4:25 AM 60.8 °F 57.2 °F 88% 29.88 in 2.5 mi South 4.6 mph - 0.00 in Rain Light Rain
4:32 AM 60.8 °F 59.0 °F 94% 29.88 in 5.0 mi WSW 6.9 mph - 0.00 in Rain Light Rain
4:40 AM 60.8 °F 57.2 °F 88% 29.88 in 5.0 mi West 6.9 mph - 0.00 in   Overcast
4:47 AM 60.8 °F 59.0 °F 94% 29.88 in 5.0 mi WSW 5.8 mph - 0.00 in   Overcast
4:56 AM 60.1 °F 59.0 °F 96% 29.88 in 9.0 mi WSW 4.6 mph - 0.00 in   Overcast
5:25 AM 60.8 °F 59.0 °F 94% 29.89 in 5.0 mi West 3.5 mph - 0.00 in   Overcast
5:36 AM 60.8 °F 57.2 °F 88% 29.89 in 4.0 mi West 8.1 mph - 0.00 in Rain Light Rain
5:43 AM 60.8 °F 59.0 °F 94% 29.89 in 4.0 mi WNW 8.1 mph - 0.00 in Rain Light Rain
5:56 AM 60.1 °F 59.0 °F 96% 29.89 in 10.0 mi West 6.9 mph - 0.00 in   Overcast
6:06 AM 60.8 °F 59.0 °F 94% 29.89 in 10.0 mi West 5.8 mph - N/A   Overcast
6:17 AM 60.8 °F 59.0 °F 94% 29.90 in 10.0 mi West 4.6 mph - N/A   Overcast
6:56 AM 60.1 °F 57.9 °F 93% 29.90 in 10.0 mi Calm Calm - N/A   Overcast
7:56 AM 61.0 °F 57.0 °F 87% 29.91 in 10.0 mi WSW 10.4 mph - N/A   Overcast
8:08 AM 60.8 °F 57.2 °F 88% 29.92 in 6.0 mi WSW 10.4 mph - 0.00 in Rain Light Rain
8:46 AM 60.8 °F 57.2 °F 88% 29.93 in 10.0 mi West 13.8 mph - 0.00 in   Overcast
8:56 AM 61.0 °F 57.0 °F 87% 29.93 in 10.0 mi West 12.7 mph - 0.00 in   Overcast
9:24 AM 60.8 °F 57.2 °F 88% 29.94 in 6.0 mi West 8.1 mph - 0.00 in Rain Light Rain
9:56 AM 59.0 °F 57.0 °F 93% 29.94 in 2.5 mi West 13.8 mph - 0.00 in Rain Light Rain
10:22 AM 59.0 °F 57.2 °F 94% 29.95 in 3.0 mi West 11.5 mph - 0.00 in Rain Light Rain
10:56 AM 57.9 °F 57.0 °F 97% 29.96 in 3.0 mi NW 8.1 mph - 0.00 in Rain Light Rain
11:56 AM 60.1 °F 55.9 °F 86% 29.95 in 10.0 mi West 11.5 mph - 0.00 in   Overcast
12:56 PM 61.0 °F 55.9 °F 83% 29.94 in 10.0 mi SSW 5.8 mph - N/A   Mostly Cloudy
1:56 PM 61.0 °F 55.9 °F 83% 29.92 in 10.0 mi SW 5.8 mph - N/A   Mostly Cloudy
2:56 PM 63.0 °F 55.0 °F 75% 29.91 in 10.0 mi South 5.8 mph - N/A   Mostly Cloudy
3:56 PM 64.9 °F 51.1 °F 61% 29.91 in 10.0 mi SSW 10.4 mph - N/A   Mostly Cloudy
4:56 PM 63.0 °F 51.1 °F 65% 29.92 in 10.0 mi SSW 6.9 mph - N/A   Mostly Cloudy
5:56 PM 61.0 °F 53.1 °F 75% 29.92 in 10.0 mi SSW 5.8 mph - N/A   Mostly Cloudy
6:56 PM 60.1 °F 54.0 °F 80% 29.93 in 10.0 mi South 5.8 mph - N/A   Mostly Cloudy
7:56 PM 59.0 °F 53.1 °F 81% 29.94 in 10.0 mi South 5.8 mph - N/A   Scattered Clouds
8:56 PM 59.0 °F 53.1 °F 81% 29.94 in 10.0 mi SSE 4.6 mph - N/A   Scattered Clouds
9:56 PM 57.9 °F 54.0 °F 87% 29.95 in 10.0 mi SE 3.5 mph - N/A   Mostly Cloudy
10:06 PM 57.2 °F 53.6 °F 88% 29.95 in 10.0 mi SE 3.5 mph - 0.00 in Rain Light Rain
10:29 PM 57.2 °F 53.6 °F 88% 29.96 in 10.0 mi ESE 3.5 mph - 0.00 in   Scattered Clouds
10:56 PM 57.0 °F 54.0 °F 89% 29.96 in 10.0 mi Calm Calm - 0.00 in   Scattered Clouds
11:56 PM 55.9 °F 54.0 °F 93% 29.95 in 10.0 mi SSE 3.5 mph - N/A   Mostly Cloudy